Coffeeville Lake Weather Center

Moon Phase Calendar



Coffeeville Lake Water Level
Online Cameras

 


      

Current Conditions in Butler
2/28/2024 9:39:27 AM

73°F
Feels Like 73
Clouds
Humidity
66%
Pressure
30"
Wind
12.4 mph (SW)
Dew Point
61°F
UV Index
2/10 (Low)
Visibility
6 mi

Hourly Forecast

Date & Time Wed, Feb 28
9:00 AM
Wed, Feb 28
10:00 AM
Wed, Feb 28
11:00 AM
Wed, Feb 28
12:00 PM
Wed, Feb 28
1:00 PM
Wed, Feb 28
2:00 PM
Wed, Feb 28
3:00 PM
Wed, Feb 28
4:00 PM
Wed, Feb 28
5:00 PM
Wed, Feb 28
6:00 PM
Wed, Feb 28
7:00 PM
Wed, Feb 28
8:00 PM
Wed, Feb 28
9:00 PM
Wed, Feb 28
10:00 PM
Wed, Feb 28
11:00 PM
Thu, Feb 29
12:00 AM
Thu, Feb 29
1:00 AM
Thu, Feb 29
2:00 AM
Thu, Feb 29
3:00 AM
Thu, Feb 29
4:00 AM
Thu, Feb 29
5:00 AM
Thu, Feb 29
6:00 AM
Thu, Feb 29
7:00 AM
Thu, Feb 29
8:00 AM
Thu, Feb 29
9:00 AM
Thu, Feb 29
10:00 AM
Thu, Feb 29
11:00 AM
Thu, Feb 29
12:00 PM
Thu, Feb 29
1:00 PM
Thu, Feb 29
2:00 PM
Thu, Feb 29
3:00 PM
Thu, Feb 29
4:00 PM
Thu, Feb 29
5:00 PM
Thu, Feb 29
6:00 PM
Thu, Feb 29
7:00 PM
Thu, Feb 29
8:00 PM
Thu, Feb 29
9:00 PM
Thu, Feb 29
10:00 PM
Thu, Feb 29
11:00 PM
Fri, Mar 1
12:00 AM
Fri, Mar 1
1:00 AM
Fri, Mar 1
2:00 AM
Fri, Mar 1
3:00 AM
Fri, Mar 1
4:00 AM
Fri, Mar 1
5:00 AM
Fri, Mar 1
6:00 AM
Fri, Mar 1
7:00 AM
Fri, Mar 1
8:00 AM
Condition
Clouds

Clouds

Clouds

Clouds

Rain

Rain

Rain

Rain

Clouds

Clouds

Clouds

Clouds

Clouds

Clouds

Clouds

Clouds

Clouds

Clouds

Clouds

Clouds

Clouds

Clouds

Clouds

Clouds

Clouds

Clouds

Clouds

Clouds

Clouds

Clouds

Clouds

Clouds

Clouds

Clouds

Clouds

Clouds

Clouds

Clouds

Clouds

Clouds

Clouds

Clouds

Clouds

Rain

Rain

Rain

Rain

Rain
Temperature 72°F73°F74°F75°F75°F70°F54°F51°F50°F48°F48°F48°F48°F47°F46°F46°F46°F45°F44°F43°F43°F42°F42°F44°F46°F50°F53°F54°F55°F57°F56°F55°F53°F52°F51°F50°F49°F49°F49°F51°F52°F53°F52°F52°F51°F51°F52°F53°F
Feels Like 72°F73°F74°F75°F75°F70°F53°F50°F45°F43°F43°F44°F44°F43°F42°F41°F41°F40°F39°F38°F38°F38°F37°F39°F42°F45°F49°F51°F52°F54°F53°F52°F50°F49°F48°F49°F47°F48°F48°F49°F49°F50°F50°F51°F50°F50°F51°F53°F
Cloudiness 100%100%100%100%100%100%100%100%100%100%100%100%100%100%100%100%100%100%100%100%100%100%100%100%100%100%100%100%100%100%100%100%100%100%100%100%100%100%100%100%100%100%100%100%100%100%100%100%
Visibility 6 mi6 mi6 mi6 mi6 mi6 mi6 mi6 mi6 mi6 mi6 mi6 mi6 mi6 mi6 mi6 mi6 mi6 mi6 mi6 mi6 mi6 mi6 mi6 mi6 mi6 mi6 mi6 mi6 mi6 mi6 mi6 mi6 mi6 mi6 mi6 mi6 mi6 mi6 mi6 mi6 mi6 mi6 mi6 mi3 mi4 mi1 mi2 mi
Precipitation 0%0%0%4%55%78%96%96%75%72%0%0%0%0%0%0%0%0%0%0%0%0%0%0%0%0%0%0%0%0%0%0%0%0%0%0%0%0%0%0%0%0%0%38%75%97%100%100%
Humidity 68%66%64%62%66%76%90%86%80%79%77%75%70%61%57%57%54%50%48%48%49%50%51%46%39%34%30%29%29%29%33%39%42%44%48%50%52%53%55%55%59%62%67%75%95%98%99%99%
Dew Point 61°F61°F61°F61°F62°F62°F51°F47°F44°F42°F41°F40°F38°F35°F32°F31°F30°F27°F26°F25°F25°F25°F25°F24°F23°F22°F22°F23°F24°F25°F27°F30°F31°F31°F32°F32°F32°F33°F33°F36°F38°F40°F41°F44°F49°F50°F51°F53°F
Pressure 30"30"30"30"30"30.03"30.12"30.15"30.21"30.24"30.27"30.3"30.3"30.33"30.33"30.33"30.33"30.33"30.33"30.33"30.36"30.39"30.39"30.42"30.42"30.39"30.36"30.27"30.3"30.3"30.3"30.27"30.27"30.27"30.27"30.3"30.27"30.24"30.24"30.21"30.21"30.21"30.15"30.15"30.15"30.15"30.15"30.18"
Wind Speed 11.2 mph12.4 mph13.5 mph12.4 mph10.3 mph13.4 mph13.7 mph12.4 mph13.6 mph12.4 mph10.3 mph9 mph9.3 mph9.6 mph8.9 mph9 mph9.5 mph9.8 mph9.4 mph8.7 mph8.8 mph7.6 mph7 mph9.4 mph9.5 mph10.2 mph8.9 mph9.8 mph6.3 mph6.5 mph7 mph7.2 mph7.4 mph4.4 mph4.2 mph3.9 mph4.4 mph3.9 mph3.8 mph4.8 mph3 mph0.7 mph5.3 mph3.2 mph3 mph5.3 mph2.8 mph3.3 mph
Wind
Direction
232°
SW
235°
SW
240°
WSW
248°
WSW
259°
W
317°
NW
349°
N
354°
N
358°
N

N
19°
NNE
19°
NNE
19°
NNE
22°
NNE
26°
NNE
21°
NNE
25°
NNE
29°
NNE
32°
NNE
34°
NE
35°
NE
34°
NE
28°
NNE
32°
NNE
39°
NE
54°
NE
59°
ENE
64°
ENE
38°
NE
46°
NE
53°
NE
65°
ENE
78°
ENE
65°
ENE
56°
NE
72°
ENE
93°
E
104°
ESE
107°
ESE
102°
ESE
111°
ESE
51°
NE
104°
ESE
49°
NE
36°
NE
60°
ENE
27°
NNE
111°
ESE

Daily Forecast

Date High Low Precip. Humidity
Today
Feb 28

Rain
75 °F
46 °F
96%
62%
Thursday
Feb 29

Clouds
57 °F
42 °F
0%
29%
Friday
Mar 1

Rain
59 °F
51 °F
100%
99%
Saturday
Mar 2

Clouds
66 °F
57 °F
0%
86%
Sunday
Mar 3

Rain
71 °F
60 °F
94%
79%
Monday
Mar 4

Rain
68 °F
62 °F
92%
92%
Tuesday
Mar 5

Rain
70 °F
60 °F
100%
76%
Wednesday
Mar 6

Rain
66 °F
60 °F
75%
93%
Thursday
Mar 7

Rain
70 °F
65 °F
100%
92%
Friday
Mar 8

Rain
75 °F
65 °F
100%
93%
Saturday
Mar 9

Clouds
69 °F
51 °F
67%
49%
Sunday
Mar 10

Clouds
74 °F
52 °F
0%
45%
Monday
Mar 11

Clouds
75 °F
52 °F
0%
39%
Tuesday
Mar 12

Rain
66 °F
58 °F
92%
66%
Wednesday
Mar 13

Rain
77 °F
58 °F
91%
76%
Thursday
Mar 14

Clouds
81 °F
63 °F
0%
57%

Temperature 8-14 Day Outlook



Precipitation 8-14 Day Outlook




Quick Links
Coffeeville Lake News
Coffeeville Lake Photos
Coffeeville Lake Videos




About Us
Contact Us
Site Map
Search Site
Advertise With Us
   
Coffeeville.USLakes.info
THE COFFEEVILLE LAKE WEBSITE

Copyright 2024, Lakes Online
Privacy    |    Legal